QPF
0.02 0.03 0.06 0.10 0.11 0.10 0.11 0.10 0.10 0.10 0.10 0.07 0.05 0.06 0.06 0.06 0.04 0.05 0.04 0.04 0.05 0.05 0.06 0.07 0.09 0.09 0.09 0.07 0.08 0.07 0.07 0.06 0.06 0.09 0.09 0.09 0.08 0.08 0.08 0.09 0.07 0.06 0.04
0.02 0.03 0.04 0.08 0.09 0.09 0.10 0.10 0.08 0.08 0.08 0.08 0.06 0.06 0.06 0.06 0.04 0.04 0.05 0.04 0.04 0.04 0.04 0.05 0.06 0.10 0.14 0.12 0.08 0.06 0.06 0.07 0.07 0.10 0.12 0.12 0.11 0.10 0.09 0.10 0.07 0.06 0.05
0.03 0.03 0.03 0.07 0.09 0.08 0.10 0.10 0.07 0.06 0.05 0.06 0.06 0.06 0.06 0.05 0.05 0.05 0.05 0.05 0.05 0.04 0.04 0.04 0.04 0.11 0.17 0.14 0.09 0.07 0.06 0.08 0.07 0.07 0.08 0.11 0.12 0.13 0.12 0.09 0.06 0.07 0.06
0.02 0.02 0.03 0.07 0.07 0.08 0.09 0.11 0.10 0.06 0.06 0.06 0.05 0.04 0.05 0.05 0.04 0.05 0.05 0.06 0.06 0.06 0.05 0.05 0.06 0.15 0.16 0.10 0.07 0.07 0.07 0.08 0.08 0.05 0.04 0.05 0.06 0.11 0.15 0.13 0.08 0.07 0.06
0.01 0.01 0.03 0.06 0.06 0.06 0.07 0.09 0.09 0.06 0.05 0.05 0.04 0.02 0.03 0.04 0.04 0.04 0.04 0.06 0.07 0.06 0.07 0.08 0.09 0.16 0.13 0.08 0.07 0.07 0.07 0.06 0.06 0.03 0.02 0.03 0.05 0.07 0.14 0.16 0.10 0.06 0.06
0.01 0.01 0.02 0.05 0.05 0.04 0.04 0.06 0.07 0.06 0.04 0.05 0.05 0.03 0.03 0.03 0.04 0.05 0.04 0.05 0.07 0.07 0.07 0.08 0.08 0.09 0.07 0.05 0.06 0.07 0.08 0.06 0.03 0.02 0.02 0.03 0.05 0.06 0.11 0.16 0.14 0.09 0.07
0.01 0.01 0.01 0.03 0.03 0.03 0.03 0.04 0.04 0.04 0.05 0.06 0.05 0.04 0.03 0.03 0.04 0.05 0.05 0.06 0.06 0.08 0.08 0.06 0.06 0.07 0.05 0.05 0.06 0.07 0.06 0.04 0.02 0.01 0.02 0.03 0.04 0.05 0.09 0.14 0.16 0.11 0.07
0.01 0.01 0.01 0.02 0.03 0.03 0.03 0.04 0.03 0.04 0.05 0.05 0.05 0.05 0.05 0.04 0.05 0.05 0.04 0.07 0.06 0.05 0.04 0.04 0.05 0.06 0.06 0.06 0.06 0.07 0.05 0.03 0.02 0.01 0.01 0.03 0.04 0.06 0.08 0.11 0.13 0.11 0.07
0.00 0.00 0.00 0.01 0.01 0.01 0.03 0.04 0.03 0.04 0.05 0.04 0.04 0.04 0.05 0.06 0.06 0.05 0.05 0.06 0.06 0.05 0.04 0.05 0.06 0.07 0.06 0.05 0.06 0.06 0.04 0.02 0.03 0.02 0.01 0.03 0.04 0.06 0.07 0.08 0.12 0.11 0.08
0.00 0.00 0.00 0.01 0.01 0.01 0.02 0.03 0.03 0.03 0.03 0.02 0.02 0.02 0.03 0.04 0.04 0.05 0.06 0.05 0.05 0.05 0.07 0.08 0.07 0.06 0.05 0.05 0.06 0.06 0.03 0.03 0.04 0.04 0.03 0.04 0.06 0.09 0.09 0.08 0.10 0.10 0.08
0.00 0.00 0.00 0.00 0.01 0.02 0.02 0.03 0.04 0.03 0.01 0.01 0.01 0.01 0.01 0.02 0.02 0.04 0.06 0.05 0.06 0.07 0.10 0.09 0.06 0.04 0.03 0.02 0.03 0.03 0.03 0.03 0.03 0.07 0.07 0.06 0.09 0.11 0.11 0.10 0.10 0.11 0.09
0.00 0.00 0.00 0.01 0.02 0.01 0.01 0.01 0.03 0.03 0.01 0.01 0.01 0.01 0.01 0.01 0.01 0.02 0.04 0.05 0.06 0.07 0.07 0.05 0.03 0.02 0.01 0.01 0.01 0.01 0.03 0.02 0.05 0.09 0.10 0.10 0.13 0.15 0.15 0.11 0.09 0.11 0.11
0.00 0.00 0.01 0.01 0.01 0.02 0.02 0.01 0.02 0.03 0.01 0.01 0.02 0.01 0.01 0.01 0.01 0.02 0.03 0.04 0.04 0.04 0.03 0.02 0.01 0.01 0.01 0.01 0.02 0.02 0.01 0.03 0.08 0.13 0.13 0.13 0.14 0.16 0.17 0.14 0.10 0.12 0.14
0.00 0.00 0.01 0.01 0.01 0.02 0.01 0.01 0.01 0.02 0.01 0.01 0.02 0.01 0.01 0.01 0.01 0.01 0.02 0.02 0.03 0.03 0.02 0.01 0.01 0.00 0.00 0.00 0.01 0.01 0.02 0.04 0.08 0.13 0.13 0.12 0.13 0.14 0.16 0.13 0.11 0.14 0.11
0.00 0.00 0.00 0.01 0.01 0.01 0.01 0.01 0.02 0.02 0.01 0.01 0.01 0.01 0.01 0.01 0.01 0.00 0.00 0.01 0.01 0.01 0.01 0.01 0.01 0.01 0.00 0.00 0.00 0.01 0.02 0.03 0.04 0.06 0.07 0.07 0.08 0.09 0.11 0.11 0.12 0.15 0.11
0.00 0.00 0.00 0.00 0.00 0.00 0.00 0.01 0.03 0.02 0.01 0.02 0.02 0.01 0.00 0.00 0.00 0.00 0.00 0.00 0.01 0.01 0.01 0.01 0.01 0.01 0.00 0.00 0.01 0.01 0.03 0.03 0.03 0.03 0.04 0.05 0.04 0.06 0.07 0.08 0.10 0.13 0.11
0.00 0.00 0.00 0.00 0.00 0.00 0.01 0.01 0.04 0.04 0.02 0.03 0.02 0.01 0.01 0.01 0.01 0.00 0.01 0.01 0.01 0.01 0.01 0.01 0.01 0.01 0.01 0.00 0.01 0.02 0.02 0.03 0.02 0.02 0.03 0.04 0.04 0.04 0.05 0.05 0.07 0.10 0.12
0.00 0.00 0.00 0.00 0.00 0.01 0.01 0.01 0.03 0.02 0.02 0.02 0.02 0.02 0.01 0.01 0.01 0.01 0.02 0.01 0.01 0.01 0.01 0.02 0.02 0.02 0.01 0.01 0.02 0.02 0.02 0.03 0.02 0.02 0.03 0.03 0.04 0.05 0.04 0.03 0.04 0.07 0.10
0.00 0.00 0.00 0.01 0.01 0.00 0.00 0.00 0.02 0.01 0.01 0.01 0.01 0.01 0.01 0.00 0.01 0.01 0.02 0.01 0.01 0.02 0.01 0.02 0.02 0.03 0.03 0.02 0.02 0.02 0.02 0.03 0.03 0.03 0.03 0.03 0.03 0.04 0.04 0.05 0.04 0.05 0.07
0.00 0.00 0.01 0.02 0.01 0.00 0.00 0.00 0.01 0.01 0.00 0.01 0.01 0.01 0.00 0.00 0.01 0.01 0.01 0.01 0.01 0.01 0.02 0.03 0.03 0.02 0.03 0.02 0.01 0.01 0.02 0.03 0.02 0.02 0.02 0.03 0.04 0.03 0.03 0.03 0.06 0.09 0.12
0.00 0.00 0.01 0.01 0.01 0.01 0.00 0.01 0.01 0.01 0.01 0.01 0.01 0.01 0.01 0.01 0.01 0.01 0.01 0.01 0.01 0.02 0.02 0.02 0.03 0.02 0.02 0.02 0.02 0.01 0.01 0.02 0.02 0.03 0.02 0.03 0.03 0.04 0.04 0.04 0.06 0.07 0.08
0.00 0.00 0.01 0.01 0.01 0.01 0.00 0.01 0.01 0.01 0.01 0.01 0.01 0.01 0.01 0.02 0.02 0.02 0.02 0.02 0.02 0.02 0.01 0.02 0.04 0.02 0.02 0.03 0.03 0.03 0.02 0.02 0.01 0.01 0.01 0.02 0.02 0.04 0.04 0.04 0.05 0.05 0.05
0.00 0.00 0.01 0.01 0.01 0.01 0.00 0.00 0.00 0.00 0.01 0.01 0.01 0.01 0.01 0.01 0.01 0.01 0.01 0.01 0.01 0.02 0.01 0.02 0.04 0.05 0.04 0.02 0.02 0.02 0.03 0.03 0.03 0.02 0.01 0.01 0.02 0.03 0.03 0.03 0.03 0.03 0.03
0.00 0.00 0.01 0.01 0.01 0.01 0.01 0.01 0.01 0.01 0.02 0.02 0.02 0.01 0.01 0.01 0.01 0.01 0.01 0.01 0.01 0.02 0.02 0.02 0.02 0.03 0.03 0.03 0.03 0.02 0.02 0.02 0.02 0.03 0.02 0.01 0.01 0.02 0.03 0.03 0.02 0.03 0.02
0.01 0.01 0.01 0.01 0.01 0.01 0.01 0.01 0.01 0.03 0.03 0.03 0.03 0.02 0.01 0.01 0.01 0.01 0.01 0.01 0.01 0.01 0.02 0.02 0.03 0.03 0.04 0.04 0.03 0.02 0.02 0.02 0.02 0.02 0.02 0.02 0.01 0.01 0.01 0.02 0.02 0.03 0.02
0.01 0.01 0.01 0.01 0.01 0.01 0.02 0.01 0.01 0.02 0.02 0.03 0.03 0.02 0.02 0.01 0.01 0.01 0.01 0.01 0.01 0.01 0.01 0.01 0.03 0.04 0.05 0.05 0.03 0.01 0.02 0.02 0.02 0.02 0.02 0.02 0.02 0.01 0.01 0.01 0.02 0.02 0.01
MSLP
1013.50 1013.38 1013.29 1013.23 1013.19 1013.17 1013.15 1013.11 1013.06 1013.00 1012.95 1012.92 1012.93 1013.01 1013.14 1013.35 1013.60 1013.88 1014.17 1014.46 1014.73 1014.96 1015.16 1015.32 1015.43 1015.50 1015.53 1015.52 1015.47 1015.40 1015.31 1015.21 1015.13 1015.08 1015.06 1015.07 1015.12 1015.18 1015.26 1015.33 1015.37 1015.39 1015.37
1013.54 1013.43 1013.35 1013.30 1013.28 1013.29 1013.31 1013.32 1013.32 1013.30 1013.28 1013.27 1013.29 1013.36 1013.48 1013.65 1013.87 1014.12 1014.39 1014.66 1014.92 1015.16 1015.37 1015.55 1015.69 1015.79 1015.84 1015.84 1015.79 1015.69 1015.57 1015.44 1015.32 1015.23 1015.20 1015.22 1015.28 1015.38 1015.49 1015.59 1015.66 1015.70 1015.69
1013.56 1013.47 1013.40 1013.37 1013.39 1013.44 1013.51 1013.58 1013.64 1013.67 1013.68 1013.68 1013.69 1013.73 1013.81 1013.94 1014.10 1014.30 1014.52 1014.75 1014.98 1015.21 1015.44 1015.64 1015.82 1015.96 1016.05 1016.08 1016.04 1015.94 1015.80 1015.64 1015.49 1015.37 1015.32 1015.32 1015.39 1015.51 1015.65 1015.79 1015.90 1015.97 1015.98
1013.57 1013.50 1013.45 1013.46 1013.53 1013.64 1013.77 1013.91 1014.01 1014.08 1014.11 1014.12 1014.11 1014.12 1014.15 1014.21 1014.32 1014.45 1014.60 1014.78 1014.97 1015.18 1015.40 1015.63 1015.85 1016.04 1016.19 1016.27 1016.27 1016.19 1016.05 1015.87 1015.69 1015.54 1015.45 1015.43 1015.49 1015.61 1015.77 1015.95 1016.09 1016.20 1016.25
1013.57 1013.52 1013.51 1013.57 1013.70 1013.88 1014.08 1014.27 1014.42 1014.51 1014.55 1014.55 1014.52 1014.49 1014.48 1014.48 1014.52 1014.59 1014.68 1014.80 1014.95 1015.13 1015.34 1015.59 1015.84 1016.09 1016.30 1016.44 1016.49 1016.45 1016.33 1016.15 1015.94 1015.76 1015.63 1015.58 1015.61 1015.73 1015.89 1016.08 1016.26 1016.41 1016.49
1013.58 1013.55 1013.59 1013.71 1013.90 1014.14 1014.40 1014.64 1014.81 1014.92 1014.96 1014.94 1014.89 1014.83 1014.78 1014.75 1014.75 1014.76 1014.80 1014.87 1014.98 1015.13 1015.33 1015.58 1015.86 1016.16 1016.42 1016.63 1016.74 1016.75 1016.66 1016.48 1016.26 1016.05 1015.88 1015.79 1015.79 1015.87 1016.03 1016.22 1016.42 1016.59 1016.71
1013.59 1013.59 1013.67 1013.85 1014.10 1014.40 1014.71 1014.97 1015.16 1015.26 1015.29 1015.26 1015.19 1015.12 1015.06 1015.02 1015.00 1014.99 1015.01 1015.04 1015.11 1015.22 1015.40 1015.64 1015.94 1016.26 1016.58 1016.84 1017.01 1017.07 1017.01 1016.85 1016.63 1016.39 1016.18 1016.05 1016.01 1016.06 1016.19 1016.37 1016.57 1016.76 1016.90
1013.60 1013.63 1013.76 1013.99 1014.30 1014.64 1014.96 1015.23 1015.41 1015.50 1015.51 1015.47 1015.41 1015.35 1015.30 1015.28 1015.28 1015.28 1015.28 1015.30 1015.33 1015.42 1015.57 1015.79 1016.08 1016.41 1016.75 1017.05 1017.27 1017.37 1017.34 1017.21 1016.99 1016.75 1016.52 1016.35 1016.27 1016.29 1016.39 1016.54 1016.73 1016.91 1017.06
1013.61 1013.67 1013.84 1014.12 1014.46 1014.81 1015.14 1015.40 1015.55 1015.62 1015.61 1015.57 1015.52 1015.49 1015.49 1015.52 1015.55 1015.58 1015.60 1015.61 1015.63 1015.68 1015.79 1015.98 1016.25 1016.57 1016.92 1017.24 1017.48 1017.61 1017.62 1017.51 1017.32 1017.08 1016.85 1016.67 1016.56 1016.55 1016.61 1016.74 1016.90 1017.06 1017.21
1013.60 1013.70 1013.90 1014.21 1014.57 1014.92 1015.23 1015.46 1015.59 1015.63 1015.61 1015.57 1015.55 1015.57 1015.63 1015.71 1015.80 1015.87 1015.91 1015.93 1015.93 1015.96 1016.03 1016.18 1016.41 1016.71 1017.04 1017.36 1017.61 1017.77 1017.81 1017.73 1017.57 1017.36 1017.15 1016.97 1016.86 1016.83 1016.87 1016.97 1017.10 1017.23 1017.35
1013.57 1013.70 1013.94 1014.26 1014.62 1014.96 1015.24 1015.43 1015.53 1015.55 1015.53 1015.51 1015.52 1015.59 1015.70 1015.85 1015.99 1016.10 1016.17 1016.19 1016.19 1016.19 1016.23 1016.35 1016.54 1016.80 1017.11 1017.41 1017.67 1017.84 1017.90 1017.87 1017.75 1017.58 1017.41 1017.27 1017.17 1017.15 1017.17 1017.25 1017.34 1017.44 1017.53
1013.51 1013.67 1013.93 1014.26 1014.60 1014.93 1015.18 1015.34 1015.41 1015.42 1015.41 1015.41 1015.46 1015.57 1015.74 1015.93 1016.12 1016.26 1016.35 1016.38 1016.37 1016.36 1016.38 1016.47 1016.63 1016.86 1017.14 1017.42 1017.67 1017.85 1017.94 1017.94 1017.88 1017.77 1017.65 1017.55 1017.50 1017.49 1017.53 1017.58 1017.65 1017.71 1017.76
1013.39 1013.58 1013.86 1014.19 1014.53 1014.83 1015.05 1015.20 1015.26 1015.28 1015.28 1015.31 1015.40 1015.54 1015.75 1015.97 1016.18 1016.35 1016.45 1016.48 1016.48 1016.47 1016.48 1016.55 1016.69 1016.91 1017.16 1017.43 1017.67 1017.85 1017.97 1018.01 1017.99 1017.94 1017.89 1017.86 1017.85 1017.88 1017.93 1017.98 1018.03 1018.06 1018.07
1013.21 1013.44 1013.72 1014.05 1014.38 1014.67 1014.89 1015.03 1015.11 1015.15 1015.18 1015.24 1015.36 1015.53 1015.75 1015.99 1016.21 1016.38 1016.49 1016.54 1016.54 1016.55 1016.57 1016.65 1016.79 1017.00 1017.24 1017.49 1017.72 1017.91 1018.03 1018.10 1018.13 1018.14 1018.15 1018.18 1018.23 1018.30 1018.37 1018.43 1018.47 1018.47 1018.45
1012.97 1013.21 1013.51 1013.84 1014.17 1014.46 1014.69 1014.86 1014.97 1015.05 1015.12 1015.22 1015.36 1015.55 1015.78 1016.01 1016.22 1016.39 1016.51 1016.57 1016.61 1016.64 1016.69 1016.80 1016.96 1017.17 1017.41 1017.65 1017.87 1018.05 1018.18 1018.27 1018.33 1018.38 1018.44 1018.53 1018.62 1018.73 1018.82 1018.89 1018.92 1018.92 1018.87
1012.66 1012.91 1013.22 1013.56 1013.89 1014.21 1014.47 1014.68 1014.85 1014.98 1015.10 1015.24 1015.41 1015.60 1015.82 1016.04 1016.25 1016.42 1016.55 1016.64 1016.71 1016.78 1016.89 1017.03 1017.22 1017.44 1017.68 1017.91 1018.12 1018.29 1018.41 1018.50 1018.58 1018.66 1018.75 1018.86 1018.99 1019.12 1019.24 1019.32 1019.35 1019.34 1019.28
1012.27 1012.54 1012.85 1013.20 1013.56 1013.91 1014.23 1014.50 1014.73 1014.92 1015.10 1015.28 1015.47 1015.67 1015.88 1016.09 1016.29 1016.47 1016.61 1016.74 1016.86 1017.00 1017.15 1017.34 1017.56 1017.80 1018.04 1018.26 1018.45 1018.59 1018.70 1018.78 1018.86 1018.94 1019.04 1019.16 1019.30 1019.44 1019.57 1019.65 1019.69 1019.69 1019.64
1011.83 1012.10 1012.42 1012.79 1013.18 1013.57 1013.95 1014.29 1014.59 1014.86 1015.09 1015.31 1015.52 1015.72 1015.93 1016.14 1016.34 1016.53 1016.71 1016.89 1017.06 1017.25 1017.46 1017.70 1017.94 1018.19 1018.42 1018.63 1018.80 1018.92 1019.00 1019.07 1019.12 1019.19 1019.28 1019.39 1019.52 1019.65 1019.77 1019.86 1019.91 1019.92 1019.88
1011.33 1011.60 1011.93 1012.32 1012.75 1013.19 1013.63 1014.04 1014.42 1014.75 1015.04 1015.29 1015.52 1015.73 1015.95 1016.16 1016.37 1016.59 1016.81 1017.04 1017.28 1017.52 1017.78 1018.04 1018.31 1018.56 1018.78 1018.97 1019.11 1019.21 1019.27 1019.30 1019.34 1019.38 1019.44 1019.52 1019.62 1019.73 1019.84 1019.93 1019.98 1020.01 1020.00
1010.78 1011.05 1011.40 1011.81 1012.27 1012.76 1013.26 1013.74 1014.19 1014.58 1014.91 1015.20 1015.45 1015.68 1015.90 1016.13 1016.37 1016.62 1016.89 1017.17 1017.46 1017.75 1018.04 1018.33 1018.60 1018.84 1019.04 1019.21 1019.33 1019.41 1019.45 1019.47 1019.48 1019.50 1019.52 1019.57 1019.63 1019.70 1019.78 1019.85 1019.91 1019.96 1019.99
1010.18 1010.47 1010.82 1011.25 1011.74 1012.28 1012.84 1013.38 1013.88 1014.32 1014.69 1015.01 1015.28 1015.53 1015.77 1016.03 1016.30 1016.60 1016.92 1017.25 1017.58 1017.91 1018.22 1018.51 1018.77 1019.00 1019.19 1019.33 1019.44 1019.51 1019.55 1019.56 1019.56 1019.55 1019.54 1019.54 1019.55 1019.58 1019.62 1019.67 1019.73 1019.79 1019.85
1009.55 1009.84 1010.20 1010.65 1011.16 1011.74 1012.34 1012.93 1013.48 1013.97 1014.38 1014.73 1015.02 1015.29 1015.56 1015.85 1016.16 1016.50 1016.87 1017.25 1017.62 1017.97 1018.29 1018.58 1018.83 1019.03 1019.20 1019.34 1019.44 1019.52 1019.57 1019.59 1019.59 1019.57 1019.53 1019.48 1019.44 1019.41 1019.41 1019.42 1019.47 1019.54 1019.63
1008.88 1009.18 1009.54 1010.00 1010.53 1011.13 1011.77 1012.40 1012.99 1013.52 1013.97 1014.35 1014.67 1014.97 1015.27 1015.60 1015.95 1016.34 1016.75 1017.16 1017.57 1017.94 1018.26 1018.54 1018.77 1018.96 1019.11 1019.25 1019.36 1019.46 1019.53 1019.57 1019.59 1019.56 1019.51 1019.42 1019.33 1019.25 1019.18 1019.16 1019.17 1019.24 1019.34
1008.18 1008.48 1008.85 1009.31 1009.85 1010.47 1011.13 1011.79 1012.42 1012.99 1013.47 1013.89 1014.25 1014.58 1014.92 1015.28 1015.67 1016.10 1016.56 1017.01 1017.44 1017.82 1018.15 1018.42 1018.63 1018.80 1018.96 1019.09 1019.22 1019.35 1019.45 1019.53 1019.57 1019.56 1019.49 1019.38 1019.24 1019.10 1018.98 1018.90 1018.87 1018.91 1019.01
1007.48 1007.78 1008.15 1008.60 1009.15 1009.78 1010.45 1011.14 1011.80 1012.40 1012.92 1013.37 1013.76 1014.13 1014.50 1014.90 1015.34 1015.81 1016.31 1016.80 1017.25 1017.65 1017.98 1018.24 1018.44 1018.61 1018.76 1018.90 1019.05 1019.20 1019.35 1019.46 1019.53 1019.54 1019.47 1019.35 1019.17 1018.98 1018.80 1018.66 1018.58 1018.58 1018.65
1006.80 1007.11 1007.47 1007.92 1008.46 1009.09 1009.77 1010.47 1011.15 1011.77 1012.33 1012.81 1013.23 1013.64 1014.04 1014.48 1014.96 1015.47 1016.00 1016.52 1017.00 1017.42 1017.76 1018.02 1018.22 1018.38 1018.53 1018.68 1018.84 1019.02 1019.20 1019.35 1019.45 1019.48 1019.43 1019.29 1019.10 1018.87 1018.64 1018.44 1018.30 1018.24 1018.27
Thickness
5754 5755 5752 5754 5755 5756 5757 5758 5758 5760 5761 5761 5762 5763 5763 5764 5764 5764 5765 5765 5766 5766 5766 5766 5767 5767 5767 5768 5768 5769 5769 5770 5770 5770 5771 5771 5771 5771 5771 5771 5772 5773 5771
5754 5753 5751 5752 5753 5753 5754 5755 5756 5757 5758 5758 5759 5760 5760 5761 5761 5762 5762 5762 5763 5763 5763 5763 5764 5765 5765 5765 5765 5766 5766 5767 5767 5768 5769 5769 5769 5769 5769 5769 5770 5770 5769
5752 5751 5750 5750 5750 5751 5752 5752 5753 5754 5754 5755 5756 5756 5757 5758 5758 5759 5759 5759 5760 5760 5760 5760 5761 5762 5762 5762 5762 5763 5763 5764 5765 5766 5767 5769 5768 5767 5767 5767 5767 5767 5766
5750 5749 5748 5747 5748 5749 5749 5750 5750 5750 5751 5752 5752 5753 5753 5754 5754 5755 5756 5756 5756 5756 5757 5757 5760 5760 5759 5758 5759 5759 5760 5761 5762 5764 5767 5768 5767 5764 5764 5764 5764 5764 5764
5747 5747 5745 5744 5745 5746 5746 5746 5746 5747 5748 5748 5748 5749 5749 5750 5751 5751 5752 5753 5752 5753 5753 5754 5755 5755 5754 5755 5755 5756 5757 5758 5759 5762 5764 5764 5763 5761 5761 5761 5761 5761 5761
5745 5745 5742 5741 5742 5743 5743 5743 5743 5743 5744 5744 5745 5745 5746 5746 5747 5747 5748 5749 5749 5749 5749 5750 5751 5751 5751 5752 5752 5752 5753 5755 5758 5760 5760 5761 5760 5758 5758 5758 5758 5758 5758
5743 5742 5740 5738 5739 5739 5740 5740 5740 5740 5741 5741 5741 5742 5742 5743 5743 5743 5744 5744 5745 5745 5746 5746 5747 5747 5748 5748 5748 5749 5750 5751 5755 5756 5757 5757 5756 5755 5755 5755 5754 5754 5754
5740 5739 5738 5735 5735 5736 5736 5736 5736 5737 5737 5737 5737 5738 5738 5739 5739 5740 5740 5741 5741 5741 5742 5742 5742 5743 5743 5744 5744 5745 5746 5748 5752 5754 5753 5753 5751 5751 5751 5751 5751 5751 5750
5737 5737 5737 5736 5734 5733 5732 5732 5733 5733 5733 5733 5734 5734 5735 5735 5735 5735 5736 5737 5737 5737 5738 5738 5738 5739 5739 5739 5740 5741 5742 5744 5749 5750 5751 5749 5747 5747 5748 5748 5748 5748 5748
5735 5735 5734 5734 5733 5733 5731 5729 5729 5729 5729 5729 5730 5730 5731 5731 5732 5732 5732 5732 5733 5733 5734 5734 5734 5735 5735 5735 5736 5737 5739 5742 5745 5746 5747 5745 5743 5744 5744 5744 5744 5744 5743
5731 5732 5732 5731 5731 5730 5729 5726 5726 5726 5725 5726 5727 5727 5729 5731 5731 5730 5728 5728 5728 5729 5729 5729 5729 5730 5731 5731 5732 5733 5736 5740 5741 5742 5741 5739 5739 5740 5740 5740 5739 5739 5739
5728 5729 5730 5729 5728 5728 5726 5726 5725 5725 5724 5725 5725 5725 5726 5727 5726 5725 5723 5724 5724 5724 5724 5725 5725 5726 5728 5730 5729 5731 5734 5735 5737 5737 5735 5734 5735 5735 5735 5735 5735 5735 5735
5728 5727 5727 5727 5726 5725 5723 5723 5722 5722 5721 5721 5721 5722 5722 5722 5722 5722 5722 5722 5721 5721 5722 5722 5723 5725 5725 5725 5726 5728 5728 5730 5731 5730 5729 5728 5729 5730 5730 5731 5731 5731 5731
5725 5725 5724 5724 5723 5722 5720 5720 5719 5718 5718 5718 5718 5718 5718 5718 5718 5718 5718 5718 5718 5718 5718 5719 5719 5720 5721 5721 5722 5723 5723 5724 5724 5723 5722 5722 5723 5724 5725 5726 5726 5726 5727
5723 5722 5722 5720 5720 5718 5717 5715 5715 5714 5715 5714 5712 5713 5714 5714 5714 5714 5714 5713 5713 5713 5713 5714 5715 5715 5715 5716 5716 5717 5717 5718 5718 5718 5717 5716 5717 5718 5719 5720 5721 5721 5722
5722 5721 5719 5718 5716 5715 5714 5713 5712 5710 5709 5709 5708 5709 5709 5709 5709 5708 5709 5708 5708 5708 5708 5708 5709 5708 5709 5709 5710 5710 5711 5711 5711 5711 5712 5711 5711 5712 5713 5714 5715 5716 5716
5722 5720 5717 5715 5714 5712 5711 5709 5707 5706 5706 5705 5704 5704 5704 5704 5704 5703 5703 5702 5702 5702 5702 5702 5703 5703 5703 5704 5704 5704 5704 5704 5705 5706 5706 5706 5707 5706 5707 5707 5709 5710 5711
5721 5718 5715 5712 5710 5709 5706 5704 5703 5702 5701 5700 5700 5699 5700 5699 5699 5697 5696 5696 5695 5696 5696 5696 5697 5697 5697 5697 5698 5698 5699 5698 5699 5699 5701 5701 5701 5702 5702 5701 5703 5704 5705
5719 5716 5713 5710 5708 5705 5703 5701 5699 5698 5696 5696 5695 5694 5694 5694 5693 5692 5690 5690 5690 5690 5690 5691 5691 5691 5691 5690 5691 5691 5692 5693 5692 5693 5695 5695 5696 5696 5697 5696 5697 5698 5700
5716 5714 5711 5708 5705 5702 5699 5698 5695 5693 5692 5691 5690 5689 5688 5688 5687 5686 5685 5685 5684 5684 5683 5684 5683 5684 5684 5684 5686 5686 5686 5687 5687 5687 5688 5689 5690 5691 5692 5693 5693 5694 5693
5712 5711 5708 5705 5702 5699 5696 5694 5691 5689 5688 5687 5685 5684 5683 5683 5682 5681 5680 5680 5678 5678 5677 5677 5677 5677 5677 5679 5679 5679 5681 5682 5682 5681 5682 5683 5684 5684 5686 5686 5687 5688 5689
5710 5708 5706 5703 5700 5697 5694 5693 5690 5687 5685 5683 5681 5679 5678 5678 5677 5676 5675 5675 5673 5671 5670 5670 5669 5670 5671 5672 5673 5673 5673 5674 5674 5676 5676 5676 5678 5679 5679 5680 5681 5681 5683
5707 5706 5704 5702 5698 5695 5692 5689 5686 5683 5681 5679 5677 5675 5674 5673 5672 5672 5671 5670 5668 5667 5665 5664 5664 5663 5664 5666 5669 5668 5667 5666 5666 5668 5668 5670 5671 5672 5673 5673 5674 5675 5676
5707 5705 5702 5700 5697 5693 5690 5686 5683 5680 5677 5676 5675 5673 5670 5669 5668 5667 5666 5665 5663 5662 5660 5659 5659 5659 5659 5659 5661 5662 5664 5663 5660 5659 5662 5664 5664 5665 5666 5666 5667 5668 5669
5705 5702 5699 5697 5694 5690 5687 5684 5681 5679 5677 5674 5672 5669 5668 5666 5664 5662 5661 5660 5659 5658 5656 5654 5654 5654 5654 5654 5655 5656 5657 5657 5659 5656 5655 5656 5657 5659 5659 5660 5660 5661 5661
5702 5699 5696 5693 5690 5687 5684 5682 5679 5676 5673 5671 5668 5666 5664 5663 5661 5659 5657 5656 5655 5654 5652 5650 5649 5649 5649 5649 5650 5650 5650 5651 5651 5652 5650 5650 5650 5652 5653 5653 5654 5654 5654